Weather History for KFNL - April, 2013

Change the Weather History Date:

Saturday, April 13, 2013

  Actual Average Record
Temperature  
Mean Temperature 45 °F -  
Max Temperature 62 °F 58 °F 84 °F (2006)
Min Temperature 28 °F 32 °F 17 °F (1997)
Degree Days  
Heating Degree Days 20    
Moisture  
Dew Point 31 °F    
Average Humidity 62    
Maximum Humidity 93    
Minimum Humidity 26    
Precipitation  
Precipitation 0.08 in - - ()
Sea Level Pressure  
Sea Level Pressure 29.65 in    
Wind  
Wind Speed 7 mph (North)    
Max Wind Speed 31 mph    
Max Gust Speed 38 mph    
Visibility 10 miles    
Events      
Averages and records for this station are not official NWS values.
T = Trace of Precipitation, MM = Missing Value Source: NWS Daily Summary

Daily Weather History Graph

Daily Weather History Graph

Search for Another Location

Airport or City:

Trip Planner

Search our weather history database for the weather conditions in past years. The results will help you decide how hot, cold, wet, or windy it might be!

Date:

Astronomy

Apr. 13, 2013 Rise Set
Actual Time 6:24 AM MDT 7:37 PM MDT
Civil Twilight 5:56 AM MDT 8:05 PM MDT
Nautical Twilight 5:22 AM MDT 8:39 PM MDT
Astronomical Twilight 4:47 AM MDT 9:14 PM MDT
Moon 8:17 AM MDT (4/13) 11:04 PM MDT (4/13)
Length of Visible Light 14h 09m
Length of Day
13h 13m
Waxing Crescent, 11% of the Moon is Illuminated
Apr 13
Waxing Crescent
Apr 18
First Quarter
Apr 25
Full
May 2
Last Quarter
May 9
New

Hourly Weather History & Observations

Time (MDT) Temp. Windchill Dew Point Humidity Pressure Visibility Wind Dir Wind Speed Gust Speed Precip Events Conditions
12:15 AM 37.4 °F 30.3 °F 32.0 °F 81% 29.98 in 10.0 mi SSE 10.4 mph - N/A   Overcast
12:35 AM 37.4 °F 31.4 °F 32.0 °F 81% 29.97 in 10.0 mi SE 8.1 mph - N/A   Overcast
12:55 AM 37.4 °F 32.1 °F 32.0 °F 81% 29.96 in 10.0 mi SE 6.9 mph - N/A   Overcast
1:15 AM 37.4 °F 32.8 °F 30.2 °F 75% 29.96 in 10.0 mi SSE 5.8 mph - N/A   Overcast
1:35 AM 35.6 °F 32.8 °F 32.0 °F 87% 29.94 in 10.0 mi SE 3.5 mph - N/A   Overcast
1:55 AM 35.6 °F 30.7 °F 32.0 °F 87% 29.94 in 10.0 mi SE 5.8 mph - N/A   Overcast
2:15 AM 35.6 °F 30.7 °F 32.0 °F 87% 29.93 in 10.0 mi ESE 5.8 mph - N/A   Overcast
2:35 AM 35.6 °F 30.7 °F 30.2 °F 81% 29.92 in 10.0 mi East 5.8 mph - N/A   Overcast
2:55 AM 35.6 °F - 30.2 °F 81% 29.90 in 10.0 mi Calm Calm - N/A   Overcast
3:15 AM 35.6 °F 31.7 °F 30.2 °F 81% 29.89 in 10.0 mi North 4.6 mph - N/A   Overcast
3:35 AM 35.6 °F 31.7 °F 30.2 °F 81% 29.88 in 10.0 mi North 4.6 mph - N/A   Scattered Clouds
3:55 AM 33.8 °F - 30.2 °F 87% 29.86 in 10.0 mi Calm Calm - N/A   Clear
4:15 AM 33.8 °F 27.7 °F 28.4 °F 81% 29.85 in 10.0 mi NNE 6.9 mph - N/A   Clear
4:35 AM 33.8 °F 28.6 °F 28.4 °F 81% 29.84 in 10.0 mi NNE 5.8 mph - N/A   Clear
4:55 AM 32.0 °F 27.5 °F 28.4 °F 87% 29.82 in 10.0 mi NNE 4.6 mph - N/A   Clear
5:15 AM 30.2 °F 24.3 °F 26.6 °F 86% 29.81 in 10.0 mi North 5.8 mph - N/A   Clear
5:35 AM 30.2 °F - 28.4 °F 93% 29.81 in 10.0 mi Calm Calm - N/A   Clear
5:55 AM 30.2 °F - 28.4 °F 93% 29.80 in 10.0 mi Calm Calm - N/A   Clear
6:15 AM 30.2 °F - 28.4 °F 93% 29.78 in 10.0 mi Calm Calm - N/A   Clear
6:35 AM 30.2 °F - 26.6 °F 86% 29.77 in 1.2 mi Calm Calm - N/A   Clear
7:15 AM 28.4 °F - 24.8 °F 86% 29.75 in 8.0 mi Calm Calm - N/A   Partly Cloudy
7:35 AM 30.2 °F 26.7 °F 28.4 °F 93% 29.74 in 10.0 mi SSE 3.5 mph - N/A   Partly Cloudy
7:55 AM 32.0 °F 28.7 °F 30.2 °F 93% 29.73 in 10.0 mi East 3.5 mph - N/A   Clear
8:15 AM 33.8 °F 27.7 °F 32.0 °F 93% 29.73 in 10.0 mi WNW 6.9 mph - N/A   Partly Cloudy
8:55 AM 35.6 °F 29.9 °F 32.0 °F 87% 29.70 in 10.0 mi North 6.9 mph - N/A   Clear
9:15 AM 35.6 °F 30.7 °F 32.0 °F 87% 29.69 in 10.0 mi North 5.8 mph - N/A   Clear
10:15 AM 39.2 °F 35.9 °F 33.8 °F 81% 29.67 in 10.0 mi NNW 4.6 mph - N/A   Clear
10:35 AM 42.8 °F 40.1 °F 33.8 °F 70% 29.65 in 10.0 mi WNW 4.6 mph - N/A   Clear
10:55 AM 44.6 °F 40.2 °F 33.8 °F 66% 29.63 in 10.0 mi South 8.1 mph - N/A   Clear
11:15 AM 48.2 °F - 33.8 °F 58% 29.63 in 10.0 mi SSW 6.9 mph - N/A   Clear
11:35 AM 48.2 °F - 33.8 °F 58% 29.62 in 10.0 mi SE 4.6 mph - N/A   Clear
11:55 AM 51.8 °F - 33.8 °F 50% 29.60 in 10.0 mi ESE 4.6 mph - N/A   Clear
12:35 PM 55.4 °F - 33.8 °F 44% 29.58 in 10.0 mi East 6.9 mph - N/A   Clear
1:15 PM 55.4 °F - 33.8 °F 44% 29.56 in 10.0 mi North 3.5 mph - N/A   Clear
1:35 PM 57.2 °F - 33.8 °F 41% 29.53 in 10.0 mi ESE 12.7 mph - N/A   Clear
1:55 PM 57.2 °F - 32.0 °F 38% 29.54 in 10.0 mi ESE 6.9 mph - N/A   Clear
2:15 PM 59.0 °F - 33.8 °F 39% 29.54 in 10.0 mi Calm Calm - N/A   Partly Cloudy
2:35 PM 59.0 °F - 33.8 °F 39% 29.52 in 10.0 mi West 3.5 mph - N/A   Partly Cloudy
2:55 PM 60.8 °F - 33.8 °F 36% 29.51 in 10.0 mi ENE 9.2 mph - N/A   Partly Cloudy
3:15 PM 62.6 °F - 33.8 °F 34% 29.50 in 10.0 mi NE 5.8 mph - N/A   Clear
3:55 PM 62.6 °F - 26.6 °F 26% 29.47 in 10.0 mi West 13.8 mph 21.9 mph N/A   Clear
4:35 PM 62.6 °F - 28.4 °F 27% 29.46 in 10.0 mi SW 3.5 mph - N/A   Clear
4:55 PM 62.6 °F - 28.4 °F 27% 29.46 in 10.0 mi West 12.7 mph - N/A   Clear
5:15 PM 60.8 °F - 26.6 °F 27% 29.46 in 10.0 mi West 5.8 mph - N/A   Clear
5:35 PM 60.8 °F - 26.6 °F 27% 29.45 in 10.0 mi Calm Calm - N/A   Clear
6:15 PM 62.6 °F - 26.6 °F 26% 29.46 in 10.0 mi WSW 18.4 mph 25.3 mph N/A   Partly Cloudy
6:35 PM 62.6 °F - 28.4 °F 27% 29.46 in 10.0 mi SW 16.1 mph 24.2 mph N/A   Clear
6:55 PM 60.8 °F - 28.4 °F 29% 29.46 in 10.0 mi WSW 8.1 mph - N/A   Clear
7:15 PM 55.4 °F - 28.4 °F 36% 29.45 in 10.0 mi NW 9.2 mph - N/A   Clear
7:35 PM 55.4 °F - 28.4 °F 36% 29.44 in 10.0 mi NW 12.7 mph - N/A   Clear
7:55 PM 55.4 °F - 28.4 °F 36% 29.43 in 10.0 mi North 8.1 mph 16.1 mph N/A   Clear
8:15 PM 53.6 °F - 28.4 °F 38% 29.44 in 10.0 mi NNW 9.2 mph - N/A   Clear
8:35 PM 53.6 °F - 28.4 °F 38% 29.44 in 10.0 mi WNW 17.3 mph - N/A   Partly Cloudy
8:55 PM 55.4 °F - 28.4 °F 36% 29.44 in 10.0 mi WNW 11.5 mph - N/A   Mostly Cloudy
9:15 PM 55.4 °F - 28.4 °F 36% 29.45 in 10.0 mi North 9.2 mph - N/A   Overcast
9:35 PM 53.6 °F - 30.2 °F 41% 29.47 in 10.0 mi NNE 15.0 mph - N/A   Overcast
9:55 PM 51.8 °F - 33.8 °F 50% 29.48 in 10.0 mi Calm Calm - N/A   Overcast
10:15 PM 51.8 °F - 32.0 °F 47% 29.50 in 10.0 mi North 5.8 mph - N/A   Overcast
10:35 PM 51.8 °F - 32.0 °F 47% 29.48 in 10.0 mi NE 17.3 mph 23.0 mph N/A   Overcast
10:55 PM 46.4 °F 39.2 °F 37.4 °F 71% 29.49 in 10.0 mi North 18.4 mph 31.1 mph N/A   Overcast
11:15 PM 44.6 °F 35.5 °F 37.4 °F 76% 29.52 in 10.0 mi NNW 25.3 mph 33.4 mph N/A   Overcast
11:35 PM 42.8 °F 32.1 °F 37.4 °F 81% 29.53 in 10.0 mi NNW 31.1 mph 35.7 mph 0.02 in   Overcast
11:55 PM 39.2 °F 27.2 °F 35.6 °F 87% 29.57 in 8.0 mi WNW 31.1 mph 38.0 mph 0.08 in   Overcast